DMSP 5D-2 F13 DEB, 40558

Orbit data source: Space-Track

DMSP 5D-2 F13 DEB, 40558 is space debris in SSO originally from a launch on Fri, 24 Mar 1995 UTC launched from the Air Force Western Test Range (AFWTR). Debris objects in space refer to the collection of defunct objects orbiting the Earth. Examples of debris include non-operational satellites, rocket bodies, and fragments generated from explosions, collisions, or faulty payload assembly.

Loading next visibility...
Identifier
40558, 1995-015DR
Orbit
SSO
Country
Flag of USUS
Related business
Manufacturer
Unknown
Mission
Spacecraft
Bus & Motor
Unknown
Mass
Unknown
Launch date (UTC)
1995-03-24 (30 years ago)
Launch vehicle
Unknown
Launch site
Air Force Western Test Range (AFWTR)
Object type
Payload
Rocket body
Debris
Shape & HBR
Unknown
Radar Cross Section
Small (<0.1 m²)

Expand to show TLE details & history
Last TLE update: 20 hours ago

TLE from 20 hours ago
0 DMSP 5D-2 F13 DEB
1 40558U 95015DR  25258.20390262  .00004816  00000-0  21727-2 0  9998
2 40558  98.9449 242.5877 0045191 130.3543 230.1594 14.22081660537426
Epoch: 2025-09-15T04:53Z
TLE epoch observation values (Epoch: 2025-09-15T04:53:37.186Z)
Latitude
0.00001°
Longitude
174.77084°
Altitude
842.157 km
Speed
7.421 km/s
True Right ascension
16h 10m 21s
True Declination
0° 00' 00"
Sunlit
Object was in daylight at epoch
Visualization orbit readout
Latitude
Unknown
Longitude
Unknown
Altitude
Unknown
Speed
Unknown
Apparent Right ascension
Unknown
Apparent Declination
Unknown
Sunlit
N/A
Visualization observer readout
Local Sidereal Time
17:20:21
Azimuth
Unknown
Elevation
Unknown
Doppler factor
Unknown
Orbital elements
Apogee altitude
847.997 km
Perigee altitude
782.98 km
Semi-major axis
7,193.626 km
Eccentricity
0.00452
Inclination
98.9449°
RAAN
242.5877°
Arg. of periapsis
130.3543°
True anomaly
229.76322°
Mean anomaly
230.1594°
Eccentric anomaly
229.96116°
Mean motion
3.55731 °/min
Orbital period
101.2 mins
BSTAR
0.0021727
Loading maneuver chart data...
Computing Atmospheric mass density...

Documentation

Showing up to 5 results
|